Orange, MA

4:31 PM EST on December 09, 2019 (GMT -0500)
Orange Municipal

Weather History for KORE - October, 2019

Change the Weather History Date:

Wednesday, October 2, 2019

  Actual Average Record
Temperature  
Mean Temperature 64 °F -  
Max Temperature 75 °F 62 °F 82 °F (2002)
Min Temperature 50 °F 38 °F 28 °F (1997)
Degree Days  
Heating Degree Days 2    
Growing Degree Days 14 (Base 50)    
Moisture  
Dew Point 60 °F    
Average Humidity 80    
Maximum Humidity 90    
Minimum Humidity 66    
Precipitation  
Precipitation 0.10 in - - ()
Sea Level Pressure  
Sea Level Pressure 29.85 in    
Wind  
Wind Speed 6 mph ()    
Max Wind Speed 18 mph    
Max Gust Speed 20 mph    
Visibility 8.5 miles    
Events Rain    
Averages and records for this station are not official NWS values.
T = Trace of Precipitation, MM = Missing Value Source: Averaged Metar Reports

Daily Weather History Graph

Daily Weather History Graph

Search for Another Location

Airport or City:

Astronomy

Oct. 02, 2019 Rise Set
Actual Time 6:47 AM EDT 6:29 PM EDT
Civil Twilight 6:19 AM EDT 6:57 PM EDT
Nautical Twilight 5:46 AM EDT 7:29 PM EDT
Astronomical Twilight 5:13 AM EDT 8:02 PM EDT
Moon 11:14 AM EDT (10/2) 9:15 PM EDT (10/2)
Length of Visible Light 12h 38m
Length of Day
11h 42m
Waxing Crescent, 20% of the Moon is Illuminated
Oct 2
Waxing Crescent
Oct 5
First Quarter
Oct 13
Full
Oct 21
Last Quarter
Oct 27
New

Hourly Weather History & Observations

Time (EDT) Temp. Dew Point Humidity Pressure Visibility Wind Dir Wind Speed Gust Speed Precip Events Conditions
12:52 AM 68.0 °F 64.0 °F 87% 29.77 in 10.0 mi SSW 10.4 mph - N/A   Clear
1:52 AM 70.0 °F 64.0 °F 81% 29.78 in 10.0 mi SSW 5.8 mph - N/A   Overcast
2:52 AM 69.1 °F 64.0 °F 84% 29.77 in 10.0 mi Variable 3.5 mph - N/A   Mostly Cloudy
3:52 AM 68.0 °F 63.0 °F 84% 29.78 in 10.0 mi Calm Calm - N/A   Scattered Clouds
4:52 AM 68.0 °F 64.0 °F 87% 29.78 in 10.0 mi Calm Calm - N/A   Mostly Cloudy
5:05 AM 68.0 °F 64.0 °F 87% 29.78 in 10.0 mi SSW 6.9 mph - N/A   Overcast
5:52 AM 68.0 °F 64.0 °F 87% 29.77 in 10.0 mi SW 4.6 mph - N/A   Clear
6:52 AM 72.0 °F 64.9 °F 78% 29.79 in 10.0 mi West 4.6 mph - N/A   Mostly Cloudy
7:52 AM 70.0 °F 64.9 °F 84% 29.80 in 10.0 mi SW 5.8 mph - N/A   Clear
8:52 AM 73.0 °F 64.9 °F 76% 29.80 in 10.0 mi Calm Calm - N/A   Clear
9:52 AM 73.9 °F 63.0 °F 68% 29.80 in 10.0 mi Calm Calm - N/A   Scattered Clouds
10:52 AM 73.9 °F 63.0 °F 68% 29.78 in 10.0 mi SW 4.6 mph - N/A   Mostly Cloudy
11:52 AM 75.0 °F 63.0 °F 66% 29.77 in 10.0 mi South 5.8 mph - N/A   Partly Cloudy
12:52 PM 75.0 °F 64.9 °F 71% 29.78 in 10.0 mi South 4.6 mph - N/A   Overcast
1:22 PM 73.9 °F 66.0 °F 76% 29.78 in 2.5 mi NNW 4.6 mph - 0.02 in Rain Rain
1:31 PM 72.0 °F 66.0 °F 81% 29.79 in 4.0 mi NNW 6.9 mph - 0.02 in Rain Light Rain
1:38 PM 71.1 °F 66.0 °F 84% 29.79 in 7.0 mi NW 6.9 mph - 0.02 in Rain Light Rain
1:44 PM 71.1 °F 66.0 °F 84% 29.79 in 2.5 mi NW 13.8 mph - 0.04 in Rain Rain
1:52 PM 70.0 °F 66.0 °F 87% 29.80 in 2.5 mi NNW 10.4 mph - 0.05 in Rain Rain
2:14 PM 70.0 °F 66.0 °F 87% 29.81 in 6.0 mi North 12.7 mph 18.4 mph 0.01 in Rain Light Rain
2:21 PM 69.1 °F 64.0 °F 84% 29.82 in 9.0 mi North 10.4 mph 18.4 mph 0.01 in Rain Light Rain
2:33 PM 68.0 °F 64.0 °F 87% 29.82 in 6.0 mi North 10.4 mph - 0.01 in Rain Light Rain
2:40 PM 68.0 °F 64.0 °F 87% 29.82 in 4.0 mi North 9.2 mph - 0.02 in Rain Light Rain
2:52 PM 68.0 °F 64.9 °F 90% 29.82 in 4.0 mi North 4.6 mph - 0.02 in Rain Light Rain
3:05 PM 68.0 °F 64.0 °F 87% 29.83 in 10.0 mi North 13.8 mph 18.4 mph 0.00 in   Overcast
3:50 PM 66.2 °F 60.8 °F 83% 29.84 in 6.0 mi North 4.6 mph - 0.03 in Rain Light Rain
3:52 PM 66.0 °F 61.0 °F 84% 29.83 in 6.0 mi North 4.6 mph - 0.03 in Rain Light Rain
4:52 PM 66.0 °F 61.0 °F 84% 29.85 in 10.0 mi NE 6.9 mph - 0.00 in   Overcast
5:08 PM 66.0 °F 60.1 °F 81% 29.86 in 10.0 mi NE 9.2 mph - N/A   Overcast
5:23 PM 66.0 °F 60.1 °F 81% 29.88 in 10.0 mi NNE 10.4 mph - N/A   Overcast
5:52 PM 64.9 °F 57.9 °F 78% 29.89 in 10.0 mi North 6.9 mph - N/A   Overcast
6:17 PM 64.0 °F 57.9 °F 80% 29.90 in 10.0 mi North 8.1 mph - N/A   Overcast
6:40 PM 63.0 °F 57.0 °F 81% 29.91 in 10.0 mi North 10.4 mph - N/A   Overcast
6:52 PM 63.0 °F 57.0 °F 81% 29.92 in 10.0 mi North 8.1 mph - 0.00 in Rain Light Rain
7:01 PM 62.1 °F 55.9 °F 80% 29.92 in 10.0 mi North 10.4 mph - 0.00 in Rain Light Rain
7:52 PM 59.0 °F 51.1 °F 75% 29.96 in 10.0 mi North 18.4 mph - 0.00 in   Overcast
8:52 PM 57.0 °F 48.0 °F 72% 30.02 in 10.0 mi North 12.7 mph - N/A   Overcast
9:52 PM 55.9 °F 46.0 °F 69% 30.06 in 10.0 mi North 10.4 mph - N/A   Overcast
10:12 PM 55.0 °F 44.1 °F 67% 30.07 in 10.0 mi North 12.7 mph 19.6 mph N/A   Overcast
10:52 PM 52.0 °F 41.0 °F 66% 30.08 in 10.0 mi North 8.1 mph - N/A   Clear
11:52 PM 50.0 °F 41.0 °F 71% 30.11 in 10.0 mi North 4.6 mph - N/A   Mostly Cloudy